| time (UTC) | temp F | wind direction | speed knots | gust knots | rain 1hr in | rain 24hr in | rain mn in | humidity % | barometer mb |
| 20260510081844 | 58 | 186 | 0.0 | 0.0 | 0.00 | 0.00 | 0.00 | 91 | 1007.3 |
| 20260510081338 | 58 | 186 | 0.0 | 0.0 | 0.00 | 0.00 | 0.00 | 91 | 1007.2 |
| 20260510081051 | 58 | 186 | 0.0 | 0.0 | 0.00 | 0.00 | 0.00 | 90 | 1007.1 |
| 20260510080326 | 58 | 186 | 0.0 | 0.0 | 0.00 | 0.00 | 0.00 | 90 | 1007.1 |
| 20260510075820 | 59 | 186 | 0.0 | 0.0 | 0.00 | 0.00 | 0.00 | 90 | 1007.2 |
| 20260510075314 | 59 | 186 | 0.0 | 0.0 | 0.00 | 0.00 | 0.00 | 90 | 1007.1 |
| 20260510074808 | 59 | 186 | 0.0 | 0.0 | 0.00 | 0.00 | 0.00 | 89 | 1007.1 |
| 20260510074302 | 60 | 186 | 0.0 | 0.0 | 0.00 | 0.00 | 0.00 | 89 | 1007.1 |
| 20260510073755 | 60 | 186 | 0.0 | 0.0 | 0.00 | 0.00 | 0.00 | 89 | 1007.1 |
| 20260510073732 | 60 | 186 | 0.0 | 0.0 | 0.00 | 0.00 | 0.00 | 88 | 1007.1 |
| 20260510072745 | 61 | 186 | 0.0 | 0.0 | 0.00 | 0.00 | 0.00 | 87 | 1007.1 |
| 20260510072237 | 61 | 186 | 0.0 | 0.0 | 0.00 | 0.00 | 0.00 | 87 | 1007.0 |
| 20260510071731 | 62 | 186 | 0.0 | 0.0 | 0.00 | 0.00 | 0.00 | 86 | 1007.0 |
| 20260510071225 | 62 | 186 | 0.0 | 0.0 | 0.00 | 0.00 | 0.00 | 86 | 1007.0 |
| 20260510070720 | 62 | 186 | 0.0 | 0.0 | 0.00 | 0.00 | 0.00 | 85 | 1007.0 |
| 20260510070213 | 62 | 186 | 0.0 | 0.0 | 0.00 | 0.00 | 0.00 | 85 | 1007.0 |
| 20260510065709 | 63 | 186 | 0.0 | 0.0 | 0.00 | 0.00 | 0.00 | 84 | 1007.0 |
| 20260510065647 | 63 | 186 | 0.0 | 0.0 | 0.00 | 0.00 | 0.00 | 84 | 1007.1 |
| 20260510064657 | 63 | 186 | 0.0 | 0.0 | 0.00 | 0.00 | 0.00 | 84 | 1007.1 |
| 20260510064151 | 64 | 186 | 0.0 | 0.9 | 0.00 | 0.00 | 0.00 | 84 | 1007.1 |
| 20260510063644 | 64 | 184 | 0.0 | 0.9 | 0.00 | 0.00 | 0.00 | 83 | 1007.1 |
| 20260510063138 | 64 | 42 | 0.0 | 1.7 | 0.00 | 0.00 | 0.00 | 83 | 1007.1 |
| 20260510062848 | 65 | 204 | 0.0 | 1.7 | 0.00 | 0.00 | 0.00 | 82 | 1007.0 |
| 20260510062126 | 65 | 303 | 0.0 | 3.5 | 0.00 | 0.00 | 0.00 | 82 | 1006.9 |
| 20260510061620 | 65 | 299 | 0.9 | 3.5 | 0.00 | 0.00 | 0.00 | 82 | 1007.0 |
| 20260510061114 | 65 | 185 | 0.0 | 3.5 | 0.00 | 0.00 | 0.00 | 81 | 1007.0 |
| 20260510060608 | 65 | 181 | 0.0 | 1.7 | 0.00 | 0.00 | 0.00 | 81 | 1007.0 |
| 20260510055556 | 66 | 215 | 0.9 | 4.3 | 0.00 | 0.00 | 0.00 | 80 | 1006.8 |
| 20260510055050 | 66 | 10 | 0.9 | 3.5 | 0.00 | 0.00 | 0.00 | 80 | 1006.9 |
| 20260510054544 | 66 | 203 | 0.9 | 4.3 | 0.00 | 0.00 | 0.00 | 80 | 1007.0 |
| 20260510054039 | 67 | 233 | 0.9 | 4.3 | 0.00 | 0.00 | 0.00 | 79 | 1006.9 |
| 20260510053532 | 67 | 198 | 0.9 | 3.5 | 0.00 | 0.00 | 0.00 | 79 | 1007.0 |
| 20260510053026 | 67 | 253 | 0.9 | 3.5 | 0.00 | 0.00 | 0.00 | 79 | 1006.9 |
| 20260510052520 | 67 | 192 | 0.9 | 2.6 | 0.00 | 0.00 | 0.00 | 79 | 1006.9 |
| 20260510052241 | 67 | 136 | 0.9 | 3.5 | 0.00 | 0.00 | 0.00 | 79 | 1006.9 |
| 20260510051507 | 67 | 235 | 0.0 | 3.5 | 0.00 | 0.00 | 0.00 | 79 | 1007.0 |
| 20260510051003 | 67 | 239 | 0.0 | 1.7 | 0.00 | 0.00 | 0.00 | 78 | 1006.9 |
| 20260510050457 | 67 | 61 | 0.0 | 2.6 | 0.00 | 0.00 | 0.00 | 78 | 1007.0 |
| 20260510050208 | 67 | 201 | 0.0 | 2.6 | 0.00 | 0.00 | 0.00 | 78 | 1007.0 |
| 20260510045444 | 67 | 210 | 0.0 | 1.7 | 0.00 | 0.00 | 0.00 | 78 | 1006.9 |
| 20260510044938 | 67 | 240 | 0.0 | 1.7 | 0.00 | 0.00 | 0.00 | 78 | 1007.0 |
| 20260510044432 | 67 | 250 | 0.0 | 1.7 | 0.00 | 0.00 | 0.00 | 78 | 1007.0 |
| 20260510043926 | 67 | 298 | 0.0 | 0.9 | 0.00 | 0.00 | 0.00 | 78 | 1007.0 |
| 20260510043420 | 67 | 229 | 0.0 | 0.9 | 0.00 | 0.00 | 0.00 | 77 | 1007.0 |
| 20260510042914 | 67 | 267 | 0.0 | 1.7 | 0.00 | 0.00 | 0.00 | 77 | 1007.0 |
| 20260510042628 | 67 | 29 | 0.0 | 1.7 | 0.00 | 0.00 | 0.00 | 77 | 1007.0 |
| 20260510041903 | 67 | 139 | 0.0 | 1.7 | 0.00 | 0.00 | 0.00 | 77 | 1007.0 |
| 20260510041625 | 67 | 245 | 0.0 | 1.7 | 0.00 | 0.00 | 0.00 | 77 | 1007.0 |
| 20260510040850 | 67 | 292 | 0.0 | 3.5 | 0.00 | 0.00 | 0.00 | 76 | 1007.0 |
| 20260510040344 | 67 | 220 | 0.0 | 2.6 | 0.00 | 0.00 | 0.00 | 76 | 1006.9 |
| 20260510035838 | 67 | 148 | 0.0 | 0.9 | 0.00 | 0.00 | 0.00 | 76 | 1006.9 |
| 20260510035332 | 67 | 18 | 0.0 | 0.9 | 0.00 | 0.00 | 0.00 | 76 | 1006.8 |
| 20260510034826 | 67 | 13 | 0.0 | 2.6 | 0.00 | 0.00 | 0.00 | 76 | 1006.8 |
| 20260510034320 | 67 | 350 | 0.0 | 2.6 | 0.00 | 0.00 | 0.00 | 76 | 1006.8 |
| 20260510033814 | 66 | 177 | 0.0 | 0.0 | 0.00 | 0.00 | 0.00 | 76 | 1006.8 |
| 20260510033308 | 66 | 178 | 0.0 | 0.0 | 0.00 | 0.00 | 0.00 | 76 | 1006.8 |
| 20260510032802 | 66 | 178 | 0.0 | 0.0 | 0.00 | 0.00 | 0.00 | 75 | 1006.8 |
| 20260510032256 | 66 | 178 | 0.0 | 0.9 | 0.00 | 0.00 | 0.00 | 75 | 1006.7 |
| 20260510031750 | 66 | 178 | 0.0 | 0.9 | 0.00 | 0.00 | 0.00 | 76 | 1006.7 |
| 20260510031244 | 66 | 129 | 0.0 | 0.9 | 0.00 | 0.00 | 0.00 | 75 | 1006.7 |
| 20260510030738 | 66 | 124 | 0.0 | 0.9 | 0.00 | 0.00 | 0.00 | 75 | 1006.6 |
| 20260510030232 | 66 | 125 | 0.0 | 0.9 | 0.00 | 0.00 | 0.00 | 75 | 1006.7 |
| 20260510025726 | 66 | 134 | 0.0 | 0.0 | 0.00 | 0.00 | 0.00 | 75 | 1006.6 |
| 20260510025220 | 66 | 134 | 0.0 | 0.0 | 0.00 | 0.00 | 0.00 | 75 | 1006.5 |
| 20260510024714 | 66 | 134 | 0.0 | 0.0 | 0.00 | 0.00 | 0.00 | 75 | 1006.5 |
| 20260510024207 | 66 | 75 | 0.0 | 0.0 | 0.00 | 0.00 | 0.00 | 74 | 1006.5 |
| 20260510023702 | 66 | 75 | 0.0 | 0.9 | 0.00 | 0.00 | 0.00 | 74 | 1006.5 |
| 20260510023156 | 66 | 75 | 0.0 | 0.9 | 0.00 | 0.00 | 0.00 | 74 | 1006.4 |
| 20260510022651 | 66 | 75 | 0.0 | 0.0 | 0.00 | 0.00 | 0.00 | 74 | 1006.3 |
| 20260510022144 | 65 | 75 | 0.0 | 0.0 | 0.00 | 0.00 | 0.00 | 74 | 1006.3 |
| 20260510021857 | 65 | 75 | 0.0 | 0.0 | 0.00 | 0.00 | 0.00 | 74 | 1006.2 |
| 20260510021610 | 65 | 75 | 0.0 | 0.0 | 0.00 | 0.00 | 0.00 | 74 | 1006.2 |
| 20260510020625 | 65 | 74 | 0.0 | 0.0 | 0.00 | 0.00 | 0.00 | 74 | 1006.1 |
| 20260510020120 | 65 | 74 | 0.0 | 0.0 | 0.00 | 0.00 | 0.00 | 74 | 1006.0 |
| 20260510015614 | 65 | 74 | 0.0 | 0.0 | 0.00 | 0.00 | 0.00 | 73 | 1005.9 |
| 20260510015108 | 65 | 74 | 0.0 | 0.0 | 0.00 | 0.00 | 0.00 | 73 | 1005.9 |
| 20260510014602 | 65 | 74 | 0.0 | 0.0 | 0.00 | 0.00 | 0.00 | 73 | 1005.8 |
| 20260510014317 | 65 | 74 | 0.0 | 0.0 | 0.00 | 0.00 | 0.00 | 73 | 1005.7 |
| 20260510013810 | 64 | 74 | 0.0 | 0.0 | 0.00 | 0.00 | 0.00 | 73 | 1005.8 |
| 20260510013044 | 64 | 74 | 0.0 | 0.0 | 0.00 | 0.00 | 0.00 | 72 | 1005.8 |
| 20260510012757 | 65 | 74 | 0.0 | 0.0 | 0.00 | 0.00 | 0.00 | 70 | 1005.7 |
| 20260510012033 | 65 | 74 | 0.0 | 0.0 | 0.00 | 0.00 | 0.00 | 70 | 1005.6 |
| 20260510011526 | 65 | 74 | 0.0 | 0.0 | 0.00 | 0.00 | 0.00 | 69 | 1005.6 |
| 20260510011020 | 65 | 74 | 0.0 | 0.0 | 0.00 | 0.00 | 0.00 | 68 | 1005.5 |
| 20260510010731 | 66 | 74 | 0.0 | 0.0 | 0.00 | 0.00 | 0.00 | 68 | 1005.5 |
| 20260510010007 | 66 | 74 | 0.0 | 0.0 | 0.00 | 0.00 | 0.00 | 67 | 1005.5 |
| 20260510005502 | 67 | 74 | 0.0 | 0.0 | 0.00 | 0.00 | 0.00 | 66 | 1005.4 |
| 20260510004956 | 67 | 74 | 0.0 | 0.0 | 0.00 | 0.00 | 0.00 | 66 | 1005.3 |
| 20260510004450 | 67 | 74 | 0.0 | 0.0 | 0.00 | 0.00 | 0.00 | 66 | 1005.2 |
| 20260510003944 | 68 | 74 | 0.0 | 0.0 | 0.00 | 0.00 | 0.00 | 64 | 1005.2 |
| 20260510003708 | 68 | 74 | 0.0 | 0.0 | 0.00 | 0.00 | 0.00 | 63 | 1005.1 |
| 20260510002932 | 69 | 74 | 0.0 | 0.0 | 0.00 | 0.00 | 0.00 | 62 | 1005.1 |
| 20260510002910 | 69 | 74 | 0.0 | 0.0 | 0.00 | 0.00 | 0.00 | 62 | 1005.0 |
| 20260510001926 | 70 | 74 | 0.0 | 0.0 | 0.00 | 0.00 | 0.00 | 61 | 1004.9 |
| 20260510001651 | 70 | 74 | 0.0 | 0.0 | 0.00 | 0.00 | 0.00 | 59 | 1005.0 |
| 20260510000926 | 71 | 74 | 0.0 | 0.0 | 0.00 | 0.00 | 0.00 | 59 | 1004.9 |
| 20260510000425 | 72 | 74 | 0.0 | 0.0 | 0.00 | 0.00 | 0.00 | 58 | 1004.7 |
| 20260509235926 | 72 | 74 | 0.0 | 0.9 | 0.00 | 0.00 | 0.00 | 58 | 1004.7 |
| 20260509235425 | 73 | 74 | 0.0 | 0.9 | 0.00 | 0.00 | 0.00 | 56 | 1004.8 |
| 20260509234926 | 73 | 76 | 0.0 | 0.0 | 0.00 | 0.00 | 0.00 | 56 | 1004.7 |
| 20260509234640 | 74 | 76 | 0.0 | 0.0 | 0.00 | 0.00 | 0.00 | 54 | 1004.6 |
| 20260509233925 | 74 | 76 | 0.0 | 0.0 | 0.00 | 0.00 | 0.00 | 53 | 1004.6 |
| 20260509233423 | 74 | 76 | 0.0 | 0.9 | 0.00 | 0.00 | 0.00 | 53 | 1004.7 |
| 20260509232923 | 75 | 76 | 0.0 | 0.9 | 0.00 | 0.00 | 0.00 | 52 | 1004.6 |
| 20260509232424 | 75 | 49 | 0.0 | 1.7 | 0.00 | 0.00 | 0.00 | 51 | 1004.7 |
| 20260509231922 | 75 | 46 | 0.0 | 1.7 | 0.00 | 0.00 | 0.00 | 51 | 1004.7 |
| 20260509231418 | 75 | 173 | 0.0 | 0.9 | 0.00 | 0.00 | 0.00 | 51 | 1004.7 |
| 20260509230918 | 76 | 223 | 0.0 | 0.9 | 0.00 | 0.00 | 0.00 | 51 | 1004.7 |
| 20260509230416 | 76 | 164 | 0.0 | 2.6 | 0.00 | 0.00 | 0.00 | 51 | 1004.7 |
| 20260509225919 | 76 | 146 | 0.0 | 2.6 | 0.00 | 0.00 | 0.00 | 50 | 1004.7 |
| 20260509225421 | 76 | 226 | 0.0 | 0.9 | 0.00 | 0.00 | 0.00 | 52 | 1004.6 |
| 20260509224915 | 76 | 229 | 0.9 | 3.5 | 0.00 | 0.00 | 0.00 | 51 | 1004.5 |
| 20260509224413 | 76 | 226 | 0.9 | 3.5 | 0.00 | 0.00 | 0.00 | 51 | 1004.5 |
| 20260509223914 | 77 | 39 | 0.0 | 3.5 | 0.00 | 0.00 | 0.00 | 51 | 1004.6 |
| 20260509223412 | 77 | 69 | 0.0 | 3.5 | 0.00 | 0.00 | 0.00 | 49 | 1004.5 |
| 20260509223139 | 77 | 35 | 0.0 | 1.7 | 0.00 | 0.00 | 0.00 | 49 | 1004.5 |
| 20260509222630 | 77 | 212 | 0.0 | 3.5 | 0.00 | 0.00 | 0.00 | 50 | 1004.5 |
| 20260509221908 | 77 | 112 | 0.0 | 3.5 | 0.00 | 0.00 | 0.00 | 51 | 1004.6 |
| 20260509221409 | 77 | 197 | 0.0 | 1.7 | 0.00 | 0.00 | 0.00 | 51 | 1004.7 |
| 20260509221132 | 77 | 78 | 0.9 | 2.6 | 0.00 | 0.00 | 0.00 | 51 | 1004.6 |
| 20260509220410 | 77 | 326 | 0.9 | 4.3 | 0.00 | 0.00 | 0.00 | 50 | 1004.6 |
| 20260509215911 | 77 | 264 | 0.0 | 4.3 | 0.00 | 0.00 | 0.00 | 51 | 1004.6 |
| 20260509215410 | 77 | 141 | 0.0 | 0.0 | 0.00 | 0.00 | 0.00 | 51 | 1004.5 |
| 20260509215131 | 76 | 172 | 0.0 | 0.9 | 0.00 | 0.00 | 0.00 | 52 | 1004.6 |
| 20260509214409 | 76 | 48 | 0.0 | 0.9 | 0.00 | 0.00 | 0.00 | 51 | 1004.5 |
| 20260509213906 | 77 | 283 | 0.0 | 0.9 | 0.00 | 0.00 | 0.00 | 51 | 1004.4 |
| 20260509213629 | 77 | 51 | 0.0 | 1.7 | 0.00 | 0.00 | 0.00 | 50 | 1004.4 |
| 20260509213128 | 78 | 133 | 0.0 | 1.7 | 0.00 | 0.00 | 0.00 | 49 | 1004.4 |
| 20260509212404 | 78 | 214 | 0.9 | 3.5 | 0.00 | 0.00 | 0.00 | 49 | 1004.5 |
| 20260509212125 | 78 | 196 | 0.9 | 3.5 | 0.00 | 0.00 | 0.00 | 47 | 1004.3 |
| 20260509211353 | 80 | 161 | 0.0 | 1.7 | 0.00 | 0.00 | 0.00 | 47 | 1004.4 |
| 20260509210850 | 80 | 21 | 0.0 | 1.7 | 0.00 | 0.00 | 0.00 | 48 | 1004.3 |
| 20260509210348 | 78 | 150 | 0.0 | 0.0 | 0.00 | 0.00 | 0.00 | 50 | 1004.4 |
| 20260509205851 | 78 | 75 | 0.0 | 0.0 | 0.00 | 0.00 | 0.00 | 48 | 1004.4 |
| 20260509205348 | 78 | 154 | 0.0 | 1.7 | 0.00 | 0.00 | 0.00 | 48 | 1004.4 |
| 20260509204851 | 79 | 174 | 0.9 | 2.6 | 0.00 | 0.00 | 0.00 | 47 | 1004.3 |
| 20260509204350 | 80 | 61 | 0.0 | 2.6 | 0.00 | 0.00 | 0.00 | 48 | 1004.3 |
| 20260509203849 | 80 | 150 | 0.0 | 0.9 | 0.00 | 0.00 | 0.00 | 45 | 1004.2 |
| 20260509203348 | 81 | 199 | 0.0 | 3.5 | 0.00 | 0.00 | 0.00 | 45 | 1004.0 |
| 20260509203111 | 81 | 67 | 0.0 | 3.5 | 0.00 | 0.00 | 0.00 | 45 | 1004.0 |
| 20260509202346 | 81 | 145 | 0.0 | 3.5 | 0.00 | 0.00 | 0.00 | 47 | 1004.0 |
| 20260509201846 | 80 | 155 | 0.9 | 3.5 | 0.00 | 0.00 | 0.00 | 47 | 1004.1 |
| 20260509201345 | 79 | 113 | 0.9 | 4.3 | 0.00 | 0.00 | 0.00 | 46 | 1004.3 |
| 20260509200845 | 80 | 207 | 0.9 | 5.2 | 0.00 | 0.00 | 0.00 | 47 | 1004.3 |
| 20260509200346 | 80 | 229 | 0.9 | 5.2 | 0.00 | 0.00 | 0.00 | 46 | 1004.3 |
| 20260509195845 | 80 | 203 | 0.9 | 3.5 | 0.00 | 0.00 | 0.00 | 47 | 1004.4 |
| 20260509195827 | 79 | 302 | 0.9 | 3.5 | 0.00 | 0.00 | 0.00 | 49 | 1004.5 |
| 20260509194845 | 78 | 148 | 0.0 | 1.7 | 0.00 | 0.00 | 0.00 | 50 | 1004.7 |
| 20260509194345 | 76 | 152 | 0.0 | 1.7 | 0.00 | 0.00 | 0.00 | 49 | 1004.7 |
| 20260509193846 | 76 | 227 | 0.9 | 3.5 | 0.00 | 0.00 | 0.00 | 49 | 1004.8 |
| 20260509193604 | 77 | 145 | 0.9 | 3.5 | 0.00 | 0.00 | 0.00 | 47 | 1004.8 |
| 20260509192844 | 78 | 64 | 0.9 | 5.2 | 0.00 | 0.00 | 0.00 | 47 | 1004.8 |
| 20260509192611 | 79 | 52 | 0.9 | 5.2 | 0.00 | 0.00 | 0.00 | 46 | 1004.8 |
| 20260509191845 | 79 | 165 | 0.9 | 5.2 | 0.00 | 0.00 | 0.00 | 46 | 1004.8 |
| 20260509191342 | 78 | 157 | 0.9 | 6.1 | 0.00 | 0.00 | 0.00 | 46 | 1004.9 |
| 20260509190841 | 78 | 219 | 0.9 | 4.3 | 0.00 | 0.00 | 0.00 | 47 | 1005.1 |
| 20260509190339 | 79 | 30 | 0.0 | 4.3 | 0.00 | 0.00 | 0.00 | 45 | 1005.2 |
| 20260509190105 | 79 | 203 | 0.0 | 1.7 | 0.00 | 0.00 | 0.00 | 47 | 1005.3 |
| 20260509185336 | 79 | 162 | 0.0 | 2.6 | 0.00 | 0.00 | 0.00 | 49 | 1005.3 |
| 20260509184836 | 78 | 176 | 0.9 | 2.6 | 0.00 | 0.00 | 0.00 | 48 | 1005.3 |
| 20260509184334 | 78 | 263 | 0.0 | 2.6 | 0.00 | 0.00 | 0.00 | 49 | 1005.3 |
| 20260509183833 | 78 | 17 | 0.9 | 6.1 | 0.00 | 0.00 | 0.00 | 49 | 1005.4 |
| 20260509183332 | 77 | 40 | 0.9 | 6.1 | 0.00 | 0.00 | 0.00 | 50 | 1005.5 |
| 20260509182831 | 76 | 3 | 0.9 | 3.5 | 0.00 | 0.00 | 0.00 | 50 | 1005.6 |
| 20260509182325 | 76 | 175 | 0.9 | 3.5 | 0.00 | 0.00 | 0.00 | 48 | 1005.7 |
| 20260509181819 | 77 | 230 | 0.9 | 5.2 | 0.00 | 0.00 | 0.00 | 48 | 1005.7 |
| 20260509181804 | 78 | 2 | 0.9 | 5.2 | 0.00 | 0.00 | 0.00 | 46 | 1005.9 |
| 20260509180813 | 79 | 200 | 0.9 | 6.1 | 0.00 | 0.00 | 0.00 | 45 | 1005.9 |
| 20260509180314 | 79 | 20 | 0.9 | 6.1 | 0.00 | 0.00 | 0.00 | 45 | 1005.9 |
| 20260509175812 | 80 | 13 | 0.9 | 4.3 | 0.00 | 0.00 | 0.00 | 45 | 1005.9 |
| 20260509175313 | 79 | 134 | 0.9 | 3.5 | 0.00 | 0.00 | 0.00 | 47 | 1005.9 |
| 20260509174812 | 79 | 208 | 0.9 | 4.3 | 0.00 | 0.00 | 0.00 | 46 | 1006.0 |
| 20260509174312 | 79 | 54 | 0.9 | 5.2 | 0.00 | 0.00 | 0.00 | 46 | 1006.0 |
| 20260509173814 | 79 | 345 | 0.9 | 5.2 | 0.00 | 0.00 | 0.00 | 45 | 1006.0 |
| 20260509173312 | 79 | 203 | 0.9 | 4.3 | 0.00 | 0.00 | 0.00 | 47 | 1005.8 |
| 20260509173033 | 79 | 278 | 0.9 | 2.6 | 0.00 | 0.00 | 0.00 | 48 | 1005.9 |
| 20260509172528 | 78 | 45 | 0.9 | 2.6 | 0.00 | 0.00 | 0.00 | 49 | 1006.1 |
| 20260509171811 | 77 | 297 | 0.9 | 1.7 | 0.00 | 0.00 | 0.00 | 49 | 1006.1 |
| 20260509171310 | 77 | 154 | 0.9 | 2.6 | 0.00 | 0.00 | 0.00 | 49 | 1006.2 |
| 20260509170810 | 77 | 57 | 0.9 | 3.5 | 0.00 | 0.00 | 0.00 | 49 | 1006.3 |
| 20260509170308 | 77 | 240 | 0.9 | 3.5 | 0.00 | 0.00 | 0.00 | 50 | 1006.5 |
| 20260509165809 | 77 | 225 | 0.9 | 2.6 | 0.00 | 0.00 | 0.00 | 50 | 1006.5 |
| 20260509165311 | 77 | 350 | 0.9 | 3.5 | 0.00 | 0.00 | 0.00 | 49 | 1006.6 |
| 20260509165024 | 76 | 214 | 0.9 | 5.2 | 0.00 | 0.00 | 0.00 | 51 | 1006.7 |
| 20260509164259 | 76 | 120 | 0.9 | 5.2 | 0.00 | 0.00 | 0.00 | 50 | 1006.9 |
| 20260509163754 | 76 | 117 | 0.9 | 3.5 | 0.00 | 0.00 | 0.00 | 50 | 1006.9 |
| 20260509163248 | 76 | 145 | 0.9 | 4.3 | 0.00 | 0.00 | 0.00 | 51 | 1006.8 |
| 20260509162742 | 75 | 90 | 1.7 | 4.3 | 0.00 | 0.00 | 0.00 | 52 | 1006.7 |
| 20260509162236 | 74 | 4 | 0.9 | 4.3 | 0.00 | 0.00 | 0.00 | 52 | 1006.7 |
| 20260509161730 | 74 | 68 | 0.9 | 3.5 | 0.00 | 0.00 | 0.00 | 53 | 1006.8 |
| 20260509161224 | 73 | 162 | 0.9 | 3.5 | 0.00 | 0.00 | 0.00 | 52 | 1006.8 |
| 20260509160945 | 73 | 334 | 0.9 | 5.2 | 0.00 | 0.00 | 0.00 | 53 | 1007.0 |
| 20260509160211 | 72 | 205 | 0.9 | 5.2 | 0.00 | 0.00 | 0.00 | 53 | 1007.1 |
| 20260509155706 | 72 | 31 | 0.9 | 4.3 | 0.00 | 0.00 | 0.00 | 53 | 1007.0 |
| 20260509155200 | 72 | 168 | 0.9 | 4.3 | 0.00 | 0.00 | 0.00 | 51 | 1007.1 |
| 20260509154654 | 72 | 169 | 0.9 | 2.6 | 0.00 | 0.00 | 0.00 | 52 | 1007.2 |
| 20260509154148 | 72 | 197 | 0.9 | 3.5 | 0.00 | 0.00 | 0.00 | 54 | 1007.3 |
| 20260509153641 | 72 | 136 | 0.9 | 3.5 | 0.00 | 0.00 | 0.00 | 55 | 1007.3 |
| 20260509153357 | 71 | 155 | 0.0 | 2.6 | 0.00 | 0.00 | 0.00 | 56 | 1007.3 |
| 20260509152630 | 71 | 217 | 0.9 | 5.2 | 0.00 | 0.00 | 0.00 | 60 | 1007.3 |
| 20260509152124 | 70 | 153 | 0.9 | 5.2 | 0.00 | 0.00 | 0.00 | 59 | 1007.3 |
| 20260509151618 | 70 | 215 | 0.9 | 3.5 | 0.00 | 0.00 | 0.00 | 59 | 1007.6 |
| 20260509151112 | 69 | 335 | 0.9 | 2.6 | 0.00 | 0.00 | 0.00 | 60 | 1007.6 |
| 20260509150607 | 69 | 58 | 0.9 | 3.5 | 0.00 | 0.00 | 0.00 | 60 | 1007.6 |
| 20260509145554 | 69 | 230 | 0.0 | 2.6 | 0.00 | 0.00 | 0.00 | 62 | 1007.7 |
| 20260509145047 | 68 | 52 | 0.0 | 1.7 | 0.00 | 0.00 | 0.00 | 62 | 1007.8 |
| 20260509144541 | 68 | 205 | 0.0 | 2.6 | 0.00 | 0.00 | 0.00 | 65 | 1007.9 |
| 20260509144036 | 68 | 275 | 0.0 | 2.6 | 0.00 | 0.00 | 0.00 | 64 | 1008.1 |
| 20260509143529 | 67 | 355 | 0.0 | 2.6 | 0.00 | 0.00 | 0.00 | 66 | 1008.3 |
| 20260509143024 | 67 | 22 | 0.9 | 4.3 | 0.00 | 0.00 | 0.00 | 66 | 1008.3 |
| 20260509142518 | 67 | 78 | 0.0 | 4.3 | 0.00 | 0.00 | 0.00 | 66 | 1008.4 |
| 20260509142011 | 67 | 330 | 0.0 | 2.6 | 0.00 | 0.00 | 0.00 | 67 | 1008.4 |
| 20260509141505 | 66 | 221 | 0.0 | 2.6 | 0.00 | 0.00 | 0.00 | 67 | 1008.5 |
| 20260509141000 | 66 | 195 | 0.0 | 2.6 | 0.00 | 0.00 | 0.00 | 68 | 1008.5 |
| 20260509140710 | 66 | 22 | 0.0 | 2.6 | 0.00 | 0.00 | 0.00 | 69 | 1008.4 |
| 20260509140210 | 65 | 221 | 0.0 | 3.5 | 0.00 | 0.00 | 0.00 | 70 | 1008.3 |
| 20260509135707 | 65 | 353 | 0.0 | 3.5 | 0.00 | 0.00 | 0.00 | 70 | 1008.4 |
| 20260509135152 | 65 | 288 | 0.0 | 0.9 | 0.00 | 0.00 | 0.00 | 72 | 1008.4 |
| 20260509134430 | 64 | 28 | 0.0 | 0.9 | 0.00 | 0.00 | 0.00 | 73 | 1008.5 |
| 20260509133923 | 64 | 28 | 0.9 | 4.3 | 0.00 | 0.00 | 0.00 | 73 | 1008.7 |
| 20260509133418 | 64 | 91 | 0.9 | 4.3 | 0.00 | 0.00 | 0.00 | 73 | 1008.9 |
| 20260509132911 | 63 | 345 | 0.0 | 2.6 | 0.00 | 0.00 | 0.00 | 74 | 1008.9 |
| 20260509132405 | 63 | 151 | 0.0 | 2.6 | 0.00 | 0.00 | 0.00 | 76 | 1008.9 |
| 20260509131900 | 63 | 229 | 0.0 | 0.0 | 0.00 | 0.00 | 0.00 | 77 | 1009.0 |
| 20260509131354 | 62 | 178 | 0.0 | 0.0 | 0.00 | 0.00 | 0.00 | 78 | 1008.9 |
| 20260509130847 | 62 | 174 | 0.0 | 1.7 | 0.00 | 0.00 | 0.00 | 79 | 1008.8 |
| 20260509130342 | 61 | 153 | 0.0 | 1.7 | 0.00 | 0.00 | 0.00 | 79 | 1008.8 |
| 20260509125330 | 60 | 147 | 0.0 | 0.9 | 0.00 | 0.00 | 0.00 | 81 | 1008.6 |
| 20260509124824 | 60 | 146 | 0.0 | 0.9 | 0.00 | 0.00 | 0.00 | 81 | 1008.8 |
| 20260509124318 | 59 | 133 | 0.0 | 0.9 | 0.00 | 0.00 | 0.00 | 82 | 1008.8 |
| 20260509123812 | 59 | 96 | 0.0 | 0.9 | 0.00 | 0.00 | 0.00 | 83 | 1008.7 |
| 20260509123306 | 58 | 105 | 0.0 | 0.9 | 0.00 | 0.00 | 0.00 | 83 | 1008.8 |
| 20260509122800 | 58 | 28 | 0.0 | 0.9 | 0.00 | 0.00 | 0.00 | 84 | 1008.9 |
| 20260509122253 | 58 | 158 | 0.0 | 0.0 | 0.00 | 0.00 | 0.00 | 84 | 1008.9 |
| 20260509121747 | 57 | 158 | 0.0 | 0.9 | 0.00 | 0.00 | 0.00 | 85 | 1009.0 |
| 20260509121500 | 57 | 161 | 0.0 | 0.9 | 0.00 | 0.00 | 0.00 | 85 | 1009.1 |
| 20260509120736 | 56 | 80 | 0.0 | 0.9 | 0.00 | 0.00 | 0.00 | 85 | 1009.1 |
| 20260509120229 | 56 | 44 | 0.0 | 1.7 | 0.00 | 0.00 | 0.00 | 86 | 1009.0 |
| 20260509115723 | 56 | 75 | 0.0 | 1.7 | 0.00 | 0.00 | 0.00 | 87 | 1009.0 |
| 20260509115218 | 55 | 39 | 0.0 | 1.7 | 0.00 | 0.00 | 0.00 | 87 | 1008.9 |
| 20260509115157 | 55 | 44 | 0.0 | 0.0 | 0.00 | 0.00 | 0.00 | 88 | 1008.8 |
| 20260509114209 | 55 | 44 | 0.0 | 0.0 | 0.00 | 0.00 | 0.00 | 88 | 1008.8 |
| 20260509113706 | 54 | 42 | 0.0 | 0.9 | 0.00 | 0.00 | 0.00 | 88 | 1008.7 |
| 20260509113205 | 54 | 42 | 0.0 | 0.9 | 0.00 | 0.00 | 0.00 | 88 | 1008.8 |
| 20260509112925 | 54 | 42 | 0.0 | 0.0 | 0.00 | 0.01 | 0.00 | 88 | 1008.7 |
| 20260509112201 | 53 | 42 | 0.0 | 0.0 | 0.00 | 0.01 | 0.00 | 88 | 1008.7 |
| 20260509111659 | 53 | 34 | 0.0 | 0.0 | 0.00 | 0.01 | 0.00 | 88 | 1008.7 |
| 20260509111157 | 53 | 22 | 0.0 | 0.9 | 0.00 | 0.01 | 0.00 | 88 | 1008.8 |
| 20260509110653 | 53 | 22 | 0.0 | 0.9 | 0.00 | 0.01 | 0.00 | 88 | 1008.9 |
| 20260509110151 | 53 | 266 | 0.0 | 0.0 | 0.00 | 0.01 | 0.00 | 88 | 1008.8 |
| 20260509105652 | 53 | 266 | 0.0 | 0.0 | 0.00 | 0.01 | 0.00 | 88 | 1008.7 |
| 20260509105153 | 52 | 266 | 0.0 | 0.0 | 0.00 | 0.01 | 0.00 | 88 | 1008.8 |
| 20260509104651 | 52 | 266 | 0.0 | 0.0 | 0.00 | 0.01 | 0.00 | 87 | 1008.8 |
| 20260509104412 | 52 | 266 | 0.0 | 0.0 | 0.00 | 0.01 | 0.00 | 87 | 1008.8 |
| 20260509103652 | 52 | 266 | 0.0 | 0.0 | 0.00 | 0.01 | 0.00 | 87 | 1008.8 |
| 20260509103152 | 52 | 266 | 0.0 | 0.0 | 0.00 | 0.01 | 0.00 | 87 | 1008.7 |
| 20260509102921 | 52 | 266 | 0.0 | 0.0 | 0.00 | 0.01 | 0.00 | 87 | 1008.6 |
| 20260509102151 | 52 | 266 | 0.0 | 0.0 | 0.00 | 0.01 | 0.00 | 86 | 1008.5 |
| 20260509101652 | 52 | 266 | 0.0 | 0.0 | 0.00 | 0.01 | 0.00 | 86 | 1008.5 |
| 20260509101410 | 52 | 266 | 0.0 | 0.0 | 0.00 | 0.01 | 0.00 | 86 | 1008.5 |
| 20260509100923 | 53 | 266 | 0.0 | 0.0 | 0.00 | 0.01 | 0.00 | 86 | 1008.6 |
| 20260509100151 | 53 | 266 | 0.0 | 0.0 | 0.00 | 0.01 | 0.00 | 85 | 1008.7 |
| 20260509095652 | 53 | 266 | 0.0 | 0.0 | 0.00 | 0.01 | 0.00 | 85 | 1008.6 |
| 20260509095149 | 53 | 266 | 0.0 | 0.0 | 0.00 | 0.01 | 0.00 | 84 | 1008.7 |
| 20260509094647 | 53 | 266 | 0.0 | 0.0 | 0.00 | 0.01 | 0.00 | 84 | 1008.6 |
| 20260509094148 | 53 | 266 | 0.0 | 0.9 | 0.00 | 0.01 | 0.00 | 84 | 1008.7 |
| 20260509093648 | 53 | 266 | 0.0 | 0.9 | 0.00 | 0.01 | 0.00 | 84 | 1008.7 |
| 20260509093406 | 53 | 266 | 0.0 | 0.0 | 0.00 | 0.01 | 0.00 | 84 | 1008.7 |
| 20260509092648 | 53 | 266 | 0.0 | 0.0 | 0.00 | 0.01 | 0.00 | 83 | 1008.8 |
| 20260509092148 | 53 | 266 | 0.0 | 2.6 | 0.00 | 0.01 | 0.00 | 83 | 1008.8 |
| 20260509091649 | 53 | 266 | 0.0 | 2.6 | 0.00 | 0.01 | 0.00 | 83 | 1008.9 |
| 20260509091150 | 53 | 141 | 0.0 | 0.0 | 0.00 | 0.01 | 0.00 | 82 | 1008.8 |
| 20260509090642 | 53 | 141 | 0.0 | 0.0 | 0.00 | 0.01 | 0.00 | 81 | 1008.8 |
| 20260509090137 | 53 | 141 | 0.0 | 0.0 | 0.00 | 0.01 | 0.00 | 81 | 1008.8 |
| 20260509085630 | 54 | 141 | 0.0 | 0.0 | 0.00 | 0.01 | 0.00 | 81 | 1008.8 |
| 20260509085345 | 54 | 141 | 0.0 | 0.0 | 0.00 | 0.01 | 0.00 | 80 | 1008.8 |
| 20260509084839 | 54 | 141 | 0.0 | 0.0 | 0.00 | 0.01 | 0.00 | 80 | 1008.7 |
| 20260509084112 | 54 | 141 | 0.0 | 0.0 | 0.00 | 0.01 | 0.00 | 80 | 1008.7 |
| 20260509083828 | 54 | 141 | 0.0 | 0.0 | 0.00 | 0.01 | 0.00 | 80 | 1008.6 |
| 20260509083107 | 54 | 141 | 0.0 | 0.0 | 0.00 | 0.01 | 0.00 | 79 | 1008.6 |
| 20260509082607 | 54 | 141 | 0.0 | 0.0 | 0.00 | 0.01 | 0.00 | 79 | 1008.5 |